[Iaude] MPEC B97: 2016 CV193 [a=1.38,e=0.28,i=9.4,H=22.56]
    mpec at marsden.cfa.harvard.edu 
    mpec at marsden.cfa.harvard.edu
       
    Tue Jan 23 09:26:30 EST 2024
    
    
  
M.P.E.C. 2024-B97                              Issued 2024 January 23, 14:24 UT
     The Minor Planet Electronic Circulars contain information on unusual
         minor planets, routine data on comets and natural satellites,
         and occasional editorial announcements.  They are published
    on behalf of Division F of the International Astronomical Union by the
          Minor Planet Center, Smithsonian Astrophysical Observatory,
                          Cambridge, MA 02138, U.S.A.
			  
             Prepared using the Tamkin Foundation Computer Network
                              MPC at CFA.HARVARD.EDU
            URL https://www.minorplanetcenter.net/    ISSN 1523-6714
                                   2016 CV193                                   
                           Revision to MPEC 2016-C147                           
Additional Observations:
     K16CJ3V 1C2018 11 08.53407404 09 27.33 -00 03 18.8                WEB097T09
     K16CJ3V 1C2018 11 10.50504204 06 16.15 -00 19 01.0                WEB097T09
     K16CJ3V 1C2018 11 10.50851404 06 15.78 -00 19 02.7                WEB097T09
     K16CJ3V KC2024 01 09.23874205 56 48.140+09 11 40.30               VEB097V06
     K16CJ3V KC2024 01 09.27281605 56 43.650+09 12 06.00         22.62GVEB097V06
     K16CJ3V KC2024 01 09.28317905 56 42.270+09 12 13.30               VEB097V06
Observer details:
T09 Subaru Telescope, Maunakea.  Observer .  Measurer S. Deen.  8.3-m Subaru
    Telescope + CCD.
V06 Catalina Sky Survey-Kuiper.  Observer K. W. Wierzchos.  Measurers E. C.
    Beshore, D. Fay, J. B. Fazekas, D. C. Fuls, A. R. Gibbs, A. D. Grauer, H.
    Groeller, J. K. Hogan, R. A. Kowalski, S. M. Larson, G. J. Leonard, D.
    Rankin, R. L. Seaman, F. C. Shelly, K. W. Wierzchos.  1.55-m reflector +
    1K CCD.
First and last observations above in comparison with prediction:
Residuals in seconds of arc, reference and Delta-T
181108 T09 10.6-  3.2-    240109 V06 55.0-  3.2-    MPO782209   -0.01 days
Orbital elements:
2016 CV193                                               Earth MOID = 0.1305 AU
Epoch 2023 Sept. 13.0 TT = JDT 2460200.5                Veres                   
M 199.40651              (2000.0)            P               Q                  
n   0.61035817     Peri.   87.20926     -0.75106013     +0.64946066             
a   1.3764049      Node   133.25592     -0.65182373     -0.70076962             
e   0.2777442      Incl.    9.38670     -0.10504522     -0.29516570             
P   1.61           H   22.56          G   0.15           U   0                  
Residuals in seconds of arc
160210 G96  0.3+  0.0     160216 691  0.3-  0.8+    160617 695  0.0   0.1-
160210 G96  0.7-  1.2+    160216 691  0.3-  0.3+    160618 926  0.1-  0.3-
160210 G96  0.1-  0.4+    160216 691 (1.0-  1.3+)   160618 926  0.0   0.3-
160210 G96  0.7-  0.1+    160226 705  0.0   0.3-    160618 926  0.4-  0.1-
160210 I52  0.2-  0.0     160226 705  0.1+  0.3-    160619 705  0.1+  0.5+
160210 I52  0.2+  0.2+    160226 705  0.1-  0.6-    160619 705  0.2+  0.2-
160210 I52  0.2+  0.1-    160226 926  0.3-  0.2+    160619 705  0.1+  0.3+
160210 I52  0.5+  0.3-    160226 926  0.1+  0.2+    160621 705  0.0   0.5-
160210 G96  0.2+  0.4+    160226 926  0.1+  0.4-    160621 705  0.2+  0.8-
160210 G96  0.3+  0.1+    160303 I52  0.4+  0.5+    160621 705  0.3+  0.2-
160210 G96  0.1-  0.4+    160303 I52  0.3+  0.1-    160625 H21  0.5+  0.7+
160210 G96  0.3+  0.2-    160303 I52  0.4-  0.1-    160625 H21  0.3-  0.4+
160210 J95  0.9+  0.0     160303 I52  0.2-  0.2-    160625 H21  0.0   0.7+
160210 J95  0.4-  0.5+    160322 705  0.4+  0.6+    160627 291  0.1-  0.0
160211 G96  0.1+  0.4+    160322 705  0.1+  0.1+    160627 291  0.1+  0.4+
160211 G96  0.1-  0.3+    160322 705  0.1-  0.1-    160628 204  0.4+  0.0
160211 G96  0.1+  0.3+    160329 H21  0.2-  0.6+    160628 204  0.2+  0.4+
160211 I52 (0.2-  1.2-)   160329 H21  0.4-  0.6+    160628 204  0.0   0.4-
160211 G96  0.1+  0.6+    160329 H21  0.1-  0.6+    160629 H21  0.1-  0.4+
160211 I52  0.1+  0.2+    160527 926  0.1-  0.1-    160629 H21  0.1+  0.1+
160211 F51  0.1-  0.3-    160527 926  0.2-  0.3+    160629 H21  0.1-  0.0
160211 F51  0.2-  0.1-    160527 926  0.4-  0.0     160701 104  0.2-  0.0
160211 F51  0.2-  0.1-    160528 926  0.2-  0.4-    160701 104  0.6+  0.3+
160211 F51  0.1-  0.3-    160528 926  0.2-  0.1+    160701 104  0.5+  0.2+
160211 K51  0.2-  0.0     160528 926  0.0   0.2+    160702 H21  0.6+  0.5+
160211 K51  0.2-  0.1+    160528 705  0.2+  0.2-    160702 H21  0.2-  0.0
160211 K51  0.1-  0.0     160528 705  0.2-  0.3+    160702 H21  0.2+  0.4+
160212 I52  0.1-  0.4-    160528 705  0.1+  0.0     181108 T09  0.0   0.3-
160212 I52 (0.8+  0.9-)   160617 695  0.0   0.1-    181110 T09  0.1+  0.1-
160212 I52  0.0   0.6-    160617 695  0.0   0.0     181110 T09  0.1-  0.2-
160212 I52  0.2-  0.7-    160617 695  0.1-  0.2-    240109 V06  0.6+  0.4+
160216 926  0.2-  0.3-    160617 695  0.1-  0.0     240109 V06  0.1-  0.1+
160216 926  0.1+  0.5-    160617 695  0.1-  0.2-    240109 V06  0.5-  0.4-
160216 926  0.1+  0.1+    160617 695  0.1-  0.1-
Ephemeris:
2016 CV193               a,e,i = 1.38, 0.28, 9                   q = 0.9941
Date    TT    R. A. (2000) Decl.     Delta      r    Elong.  Phase     V
2023 12 24    06 30 09.1 +06 39 46   0.5590  1.5257   162.3    11.3    22.9
...
2024 01 08    05 59 23.0 +08 56 19   0.5146  1.4727   157.8    14.6    22.8
...
2024 01 16    05 43 25.7 +10 44 55   0.5094  1.4426   148.4    20.9    22.9
...
2024 01 22    05 33 12.5 +12 17 04   0.5128  1.4193   140.9    25.9    23.1
2024 01 23    05 31 41.9 +12 33 02   0.5139  1.4154   139.6    26.8    23.1
2024 01 24    05 30 15.1 +12 49 08   0.5151  1.4115   138.4    27.6    23.1
...
2024 01 30    05 22 55.9 +14 27 50   0.5247  1.3875   131.1    32.3    23.2
...
2024 02 07    05 17 03.8 +16 42 05   0.5426  1.3548   122.1    38.1    23.4
...
2024 02 22    05 18 16.0 +20 49 52   0.5830  1.2919   107.7    46.8    23.7
A. U. Tomatic                (C) Copyright 2024 MPC           M.P.E.C. 2024-B97
    
    
More information about the Iaude
mailing list